[[{"header":{"parameterUnit":"m.s-1","parameterCategory":1,"la1":30.2991,"la2":30.254,"lo1":-89.0895,"lo2":-89.0444,"dy":0.0017,"dx":0.0017,"nx":28,"ny":28,"refTime":"2023-10-11T21:00:00:Z","depth":0,"parameterNumber":2,"parameterNumberName":"U-component_of_WINDS"},"data":[0,0,0,0,0,0,0,0,0,0,0,0,0,0,0,0,0,0,0,0,0,0,0,0,0,0,0,0,0,0,0,0,0,0,0,0,0,0,0,0,0,0,0,0,0,0,0,0,0,0,0,0,0,0,0,0,0,0,0.5209,0.5209,0,0.52,0.52,0.52,0.5191,0.5191,0.5191,0.5191,0.5183,0.5183,0.5183,0,0,0,0,0,0,0,0,0,0,0,0,0,0.522,0.5219,0.5209,0.5209,0.5209,0.52,0.52,0.52,0.5191,0.5191,0.5191,0.5191,0.5183,0.5183,0.5183,0,0,0,0,0,0,0,0,0,0,0,0,0,0.5213,0.5219,0.5209,0.5203,0.5203,0.52,0.52,0.52,0.5191,0.5191,0.5191,0.5191,0.5183,0.5183,0.5183,0.5186,0,0,0.5183,0.5183,0,0,0,0,0,0,0,0,0.5214,0.5213,0.5204,0.5204,0.5203,0.5197,0.5201,0.5195,0.5191,0.5196,0.5191,0.5191,0.5188,0.5187,0.5186,0.5186,0.5185,0.5183,0.5182,0.5182,0.5182,0,0,0,0,0,0,0,0.5214,0.5213,0.5206,0.5204,0.5203,0.5202,0.5201,0.52,0.5193,0.5195,0.5195,0.5194,0.5188,0.5186,0.5186,0.5185,0.5183,0.5182,0.5182,0.5182,0.5188,0.5188,0,0,0,0,0,0,0.5215,0.5214,0.5206,0.5205,0.5208,0.5202,0.5201,0.5199,0.5193,0.5192,0.5194,0.5193,0.5187,0.5186,0.5186,0.5189,0.5182,0.5182,0.5182,0.5187,0.5188,0.5188,0,0,0,0,0,0,0.5216,0.5215,0.5206,0.5209,0.5208,0.5202,0.52,0.5199,0.5198,0.5192,0.5191,0.5194,0.5187,0.5186,0.5186,0.5189,0.5182,0.5182,0.5187,0.5187,0.5188,0.5196,0,0,0,0,0,0,0.5216,0.5215,0.5215,0.5209,0.5208,0.5206,0.52,0.5199,0.5197,0.5197,0.5192,0.5191,0.5186,0.5186,0.5186,0.5188,0.5182,0.5187,0.5187,0.5188,0.5195,0.5197,0.5198,0,0,0,0,0,0.5216,0.5218,0.5215,0.5214,0.5208,0.5206,0.5206,0.52,0.5198,0.5198,0.5195,0.5191,0.5189,0.5186,0.5186,0.5188,0.5187,0.5187,0.5188,0.5195,0.5196,0.5197,0,0,0,0,0,0,0.5224,0.5217,0.5214,0.5214,0.5211,0.5205,0.5206,0.5202,0.52,0.5199,0.5193,0.5192,0.5193,0.5191,0.5189,0.5192,0.5187,0.5188,0.5193,0.5194,0.5195,0.5196,0.5182,0,0,0,0,0,0.5226,0.5225,0.5218,0.5219,0.5218,0.5212,0.5211,0.5207,0.5204,0.5203,0.5199,0.5197,0.5195,0.5195,0.5193,0.5195,0.5194,0.5197,0.5198,0.5199,0.5199,0.5201,0.5202,0.5189,0.5189,0.5189,0,0,0.523,0.5226,0.5225,0.522,0.5218,0.5217,0.5211,0.521,0.5209,0.5203,0.5203,0.52,0.5197,0.5198,0.5199,0.5196,0.5203,0.5199,0.52,0.52,0.5202,0.5203,0.5204,0.519,0.519,0.519,0,0,0.5236,0.5232,0.5232,0.523,0.5226,0.5222,0.5223,0.5217,0.5215,0.5215,0.521,0.521,0.5208,0.5206,0.5205,0.5212,0.5208,0.5212,0.5217,0.5219,0.522,0.5221,0.5223,0.5224,0.5212,0.5212,0.5212,0,0.5241,0.5239,0.5233,0.5233,0.5231,0.5225,0.5226,0.5224,0.522,0.5219,0.5217,0.5215,0.5212,0.5213,0.5215,0.5214,0.5215,0.5212,0.522,0.5221,0.5221,0.5224,0.5225,0.5213,0.5212,0.5212,0.5212,0,0.5245,0.5244,0.5245,0.5241,0.524,0.524,0.5235,0.5235,0.5232,0.5229,0.5229,0.5226,0.5224,0.5224,0.5221,0.5225,0.5224,0.5221,0.5216,0.5223,0.5226,0.5227,0.5213,0.5213,0.5213,0.5213,0,0,0.5255,0.5249,0.5249,0.5248,0.5244,0.5243,0.5243,0.5241,0.5241,0.5239,0.524,0.5239,0.5236,0.5235,0.5232,0.5233,0.5239,0.523,0.523,0.5232,0.5245,0.5247,0.5248,0.5237,0.5237,0.5237,0.5245,0,0.5261,0.526,0.5256,0.5257,0.5257,0.5252,0.5252,0.525,0.5248,0.5247,0.5245,0.5244,0.524,0.524,0.5241,0.5238,0.5242,0.5238,0.5238,0.5238,0.5239,0.525,0.5252,0.5259,0.5246,0.5246,0.5246,0,0.5266,0.5265,0.5266,0.5262,0.5262,0.5262,0.5261,0.526,0.5258,0.5256,0.5256,0.5252,0.5253,0.5249,0.5251,0.5248,0.5248,0.5247,0.5247,0.5247,0.5242,0.525,0.5261,0.5262,0.5248,0.5247,0.5247,0,0.5274,0.5272,0.5273,0.5271,0.5267,0.5268,0.5266,0.5264,0.5263,0.5262,0.5262,0.5261,0.5261,0.5261,0.5258,0.5255,0.526,0.5255,0.5259,0.5259,0.526,0.526,0.5272,0.526,0.526,0.526,0.526,0,0.528,0.5281,0.5276,0.5276,0.5278,0.5273,0.5275,0.5273,0.5271,0.5272,0.5268,0.5268,0.5264,0.5264,0.5262,0.5264,0.5264,0.5263,0.5262,0.5263,0.5263,0.5263,0.5263,0.526,0.526,0.526,0.526,0,0.5289,0.5285,0.5285,0.5282,0.5281,0.5282,0.5279,0.528,0.5278,0.5279,0.5278,0.5275,0.5275,0.5272,0.5272,0.5271,0.5274,0.5273,0.5275,0.5274,0.5278,0.5278,0.529,0.5292,0.5279,0.5279,0.5279,0,0.5293,0.5294,0.529,0.529,0.5289,0.5289,0.5288,0.5284,0.5284,0.5283,0.5284,0.5284,0.5284,0.5285,0.5282,0.5283,0.5281,0.5286,0.5281,0.5282,0.5282,0.5282,0.5282,0.5286,0.5287,0.5287,0.5287,0,0.5301,0.5299,0.5299,0.5298,0.5297,0.5297,0.5295,0.5296,0.5292,0.5292,0.5292,0.5292,0.5292,0.5293,0.5293,0.5292,0.5289,0.5288,0.5289,0.529,0.5291,0.5291,0.5277,0.5288,0.5288,0.5288,0.5288,0.5288,0.5307,0.5308,0.5306,0.5306,0.5305,0.5304,0.5305,0.5303,0.5303,0.5302,0.53,0.5301,0.53,0.53,0.53,0.5301,0.5299,0.53,0.53,0.5301,0.5301,0.5291,0.5301,0.5301,0.5301,0.5301,0.5301,0,0.5315,0.5314,0.5314,0.5313,0.5313,0.531,0.5309,0.5309,0.531,0.5309,0.531,0.5311,0.5311,0.5309,0.531,0.5311,0.531,0.5312,0.5312,0.5312,0.5303,0.5302,0.5313,0.5313,0.5313,0.5313,0.5313,0.5313,0.532,0.5321,0.5319,0.532,0.5319,0.532,0.532,0.5319,0.5319,0.532,0.5321,0.5319,0.5319,0.5319,0.532,0.532,0.532,0.5322,0.5321,0.5313,0.5312,0.5311,0.531,0.5322,0.5322,0.533,0.533,0.533]},{"header":{"parameterUnit":"m.s-1","parameterCategory":1,"la1":30.2991,"la2":30.254,"lo1":-89.0895,"lo2":-89.0444,"dy":0.0017,"dx":0.0017,"nx":28,"ny":28,"refTime":"2023-10-11T21:00:00:Z","depth":0,"parameterNumber":3,"parameterNumberName":"V-component_of_WINDS"},"data":[0,0,0,0,0,0,0,0,0,0,0,0,0,0,0,0,0,0,0,0,0,0,0,0,0,0,0,0,0,0,0,0,0,0,0,0,0,0,0,0,0,0,0,0,0,0,0,0,0,0,0,0,0,0,0,0,0,0,-4.7554,-4.7555,0,-4.7634,-4.7634,-4.7635,-4.7617,-4.7616,-4.7614,-4.7613,-4.7689,-4.7693,-4.7696,0,0,0,0,0,0,0,0,0,0,0,0,0,-4.7381,-4.7385,-4.7554,-4.7555,-4.7556,-4.7633,-4.7634,-4.7636,-4.7618,-4.7616,-4.7614,-4.7612,-4.7688,-4.7692,-4.7696,0,0,0,0,0,0,0,0,0,0,0,0,0,-4.7458,-4.7386,-4.7553,-4.7556,-4.7557,-4.7633,-4.7635,-4.7636,-4.7618,-4.7616,-4.7613,-4.7611,-4.7687,-4.7692,-4.7697,-4.7774,0,0,-4.7713,-4.7715,0,0,0,0,0,0,0,0,-4.7454,-4.7464,-4.7555,-4.7556,-4.7557,-4.7613,-4.7602,-4.7682,-4.7619,-4.7595,-4.7613,-4.761,-4.7666,-4.7672,-4.7692,-4.7777,-4.778,-4.7713,-4.7716,-4.7719,-4.772,0,0,0,0,0,0,0,-4.7448,-4.7461,-4.7585,-4.7556,-4.7558,-4.7552,-4.756,-4.7617,-4.7642,-4.7597,-4.7596,-4.7606,-4.7666,-4.7687,-4.7694,-4.7782,-4.7713,-4.7718,-4.7721,-4.7723,-4.7934,-4.7937,0,0,0,0,0,0,-4.7443,-4.7456,-4.7582,-4.7587,-4.7499,-4.7557,-4.7566,-4.7598,-4.7641,-4.7646,-4.7607,-4.7604,-4.7679,-4.7688,-4.7696,-4.779,-4.7719,-4.7723,-4.7726,-4.7932,-4.7935,-4.7938,0,0,0,0,0,0,-4.7439,-4.7454,-4.7579,-4.7522,-4.7537,-4.7562,-4.7597,-4.76,-4.7622,-4.7649,-4.7653,-4.7625,-4.7678,-4.7689,-4.7755,-4.7792,-4.7726,-4.773,-4.7929,-4.7933,-4.7936,-4.7976,0,0,0,0,0,0,-4.7434,-4.7453,-4.7483,-4.7523,-4.7541,-4.7638,-4.76,-4.7603,-4.7631,-4.7628,-4.7667,-4.7671,-4.7677,-4.7748,-4.776,-4.7798,-4.7734,-4.7926,-4.7931,-4.7935,-4.7972,-4.7981,-4.7989,0,0,0,0,0,-4.7428,-4.749,-4.7485,-4.75,-4.7579,-4.764,-4.765,-4.7658,-4.7634,-4.7664,-4.7682,-4.767,-4.7786,-4.7754,-4.7769,-4.7808,-4.7923,-4.7929,-4.7935,-4.7968,-4.7979,-4.7988,0,0,0,0,0,0,-4.7451,-4.7495,-4.749,-4.7566,-4.76,-4.7637,-4.7675,-4.7669,-4.7709,-4.7704,-4.771,-4.7719,-4.7787,-4.7804,-4.7768,-4.7885,-4.7851,-4.786,-4.7871,-4.7882,-4.7891,-4.7885,-4.7739,0,0,0,0,0,-4.7466,-4.7514,-4.7548,-4.7612,-4.763,-4.765,-4.7677,-4.768,-4.7714,-4.7728,-4.775,-4.7783,-4.7827,-4.7855,-4.7897,-4.7974,-4.7982,-4.8008,-4.8017,-4.8024,-4.8031,-4.8074,-4.8086,-4.7956,-4.7956,-4.7956,0,0,-4.7495,-4.7525,-4.7554,-4.7618,-4.7644,-4.7693,-4.7662,-4.7714,-4.7749,-4.7735,-4.78,-4.7817,-4.7854,-4.7926,-4.7959,-4.7942,-4.8069,-4.8031,-4.8036,-4.804,-4.8081,-4.8093,-4.8104,-4.796,-4.796,-4.7959,0,0,-4.7574,-4.7602,-4.7659,-4.7687,-4.7728,-4.7741,-4.7755,-4.7793,-4.7805,-4.7871,-4.7862,-4.7903,-4.7978,-4.8005,-4.8029,-4.8119,-4.8109,-4.8133,-4.8177,-4.8218,-4.8228,-4.8237,-4.827,-4.8282,-4.814,-4.814,-4.814,0,-4.7605,-4.7679,-4.7688,-4.7742,-4.777,-4.7762,-4.7819,-4.7845,-4.7897,-4.7916,-4.7898,-4.7993,-4.8017,-4.8096,-4.8118,-4.8137,-4.8153,-4.8128,-4.8227,-4.8236,-4.8244,-4.8275,-4.8287,-4.8143,-4.8142,-4.8142,-4.8142,0,-4.7715,-4.7767,-4.7808,-4.7861,-4.7893,-4.7948,-4.7965,-4.7997,-4.7997,-4.8012,-4.8079,-4.8108,-4.8156,-4.8174,-4.8174,-4.8253,-4.8242,-4.8225,-4.8191,-4.8259,-4.8288,-4.83,-4.8146,-4.8145,-4.8145,-4.8144,0,0,-4.781,-4.7869,-4.7884,-4.7909,-4.7954,-4.7993,-4.8048,-4.8097,-4.8124,-4.816,-4.8206,-4.8271,-4.8256,-4.8283,-4.8286,-4.8322,-4.8393,-4.8301,-4.8302,-4.8317,-4.8482,-4.8494,-4.8508,-4.8387,-4.8389,-4.8391,-4.8479,0,-4.7893,-4.7992,-4.8002,-4.8089,-4.8137,-4.8131,-4.8178,-4.8211,-4.8226,-4.8267,-4.8284,-4.833,-4.8307,-4.8323,-4.8359,-4.8377,-4.8426,-4.837,-4.8428,-4.843,-4.8419,-4.8523,-4.8536,-4.8618,-4.849,-4.8492,-4.8493,0,-4.8003,-4.8045,-4.8138,-4.8179,-4.8199,-4.8242,-4.8288,-4.8328,-4.8365,-4.8373,-4.8404,-4.8403,-4.8458,-4.8423,-4.8498,-4.8461,-4.8485,-4.8497,-4.85,-4.8506,-4.8466,-4.8531,-4.8644,-4.8656,-4.8511,-4.851,-4.8509,0,-4.8063,-4.8143,-4.8209,-4.823,-4.8279,-4.8309,-4.8331,-4.8365,-4.8395,-4.8434,-4.8453,-4.8498,-4.8523,-4.8557,-4.8568,-4.8541,-4.8644,-4.8609,-4.8652,-4.8651,-4.8673,-4.8671,-4.8791,-4.8689,-4.8689,-4.8688,-4.8688,0,-4.8155,-4.8212,-4.8237,-4.8278,-4.8342,-4.8353,-4.8415,-4.8434,-4.8466,-4.8509,-4.8505,-4.8546,-4.8558,-4.86,-4.8608,-4.867,-4.8681,-4.8689,-4.869,-4.8689,-4.8688,-4.8705,-4.8699,-4.8692,-4.8691,-4.869,-4.869,0,-4.8233,-4.8252,-4.8324,-4.8365,-4.8377,-4.8422,-4.8456,-4.8495,-4.851,-4.8565,-4.8579,-4.8602,-4.8652,-4.8667,-4.8725,-4.8731,-4.8804,-4.88,-4.8792,-4.8792,-4.8834,-4.883,-4.8969,-4.8988,-4.8873,-4.8874,-4.8875,0,-4.829,-4.8334,-4.8381,-4.8411,-4.8434,-4.8482,-4.8513,-4.8525,-4.8557,-4.8603,-4.8636,-4.8686,-4.8726,-4.8806,-4.8827,-4.8872,-4.887,-4.8915,-4.8876,-4.8874,-4.887,-4.8868,-4.8872,-4.8922,-4.8923,-4.8924,-4.8925,0,-4.839,-4.8398,-4.8443,-4.8492,-4.8529,-4.8568,-4.8605,-4.8629,-4.8647,-4.8682,-4.8735,-4.8766,-4.8828,-4.8877,-4.8923,-4.8943,-4.8937,-4.8938,-4.895,-4.8949,-4.8943,-4.8947,-4.8812,-4.8934,-4.8933,-4.8932,-4.8932,-4.8932,-4.8459,-4.8498,-4.8538,-4.8589,-4.8619,-4.8654,-4.8693,-4.8714,-4.8758,-4.8811,-4.8815,-4.8872,-4.8907,-4.8969,-4.8992,-4.9035,-4.9022,-4.904,-4.9044,-4.9048,-4.9052,-4.8936,-4.9044,-4.9043,-4.9043,-4.9043,-4.9043,0,-4.8559,-4.8584,-4.8631,-4.8685,-4.8724,-4.8718,-4.8758,-4.8792,-4.8842,-4.8877,-4.8918,-4.8978,-4.9026,-4.9052,-4.9099,-4.9129,-4.9128,-4.9141,-4.9139,-4.9144,-4.9061,-4.9046,-4.9142,-4.9142,-4.9142,-4.9142,-4.9142,-4.9142,-4.8615,-4.8682,-4.8695,-4.8776,-4.8801,-4.8858,-4.8882,-4.8914,-4.8942,-4.901,-4.9051,-4.9068,-4.91,-4.915,-4.9193,-4.92,-4.9217,-4.9233,-4.9237,-4.916,-4.9149,-4.914,-4.9126,-4.9236,-4.9236,-4.9316,-4.9317,-4.9317]}]]